NOAA 16 DEB, 41227

Orbit data source: Space-Track

NOAA 16 DEB, 41227 is space debris in SSO originally from a launch on Thu, 21 Sep 2000 UTC launched from the Air Force Western Test Range (AFWTR). Debris objects in space refer to the collection of defunct objects orbiting the Earth. Examples of debris include non-operational satellites, rocket bodies, and fragments generated from explosions, collisions, or faulty payload assembly.

Loading next visibility...
Identifier
41227, 2000-055EG
Orbit
SSO
Country
Flag of USUS
Related business
Manufacturer
Unknown
Mission
Spacecraft
Bus & Motor
Unknown
Mass
Unknown
Launch date (UTC)
2000-09-21 (26 years ago)
Launch vehicle
Unknown
Launch site
Air Force Western Test Range (AFWTR)
Object type
Payload
Rocket body
Debris
Shape & HBR
Unknown shape, 0.1 m
Radar Cross Section
Medium (>0.1 m² and <1 m²)

Expand to show TLE details & history
Last TLE update: 1 day ago

TLE from 1 day ago
0 NOAA 16 DEB
1 41227U 00055EG  26149.17463278  .00011867  00000-0  26592-2 0  9995
2 41227  99.0488  46.1979 0022579 155.9361 204.2894 14.56632885544827
Epoch: 2026-05-29T04:11Z
TLE epoch observation values (Epoch: 2026-05-29T04:11:28.272Z)
Latitude
-0.00007°
Longitude
96.62131°
Altitude
721.605 km
Speed
7.487 km/s
True Right ascension
03h 04m 47s
True Declination
0° 00' 00"
Sunlit
Object was in daylight at epoch
Visualization orbit readout
Latitude
Unknown
Longitude
Unknown
Altitude
Unknown
Speed
Unknown
Apparent Right ascension
Unknown
Apparent Declination
Unknown
Sunlit
N/A
Visualization observer readout
Local Sidereal Time
22:05:15
Azimuth
Unknown
Elevation
Unknown
Doppler factor
Unknown
Orbital elements
Apogee altitude
717.178 km
Perigee altitude
685.209 km
Semi-major axis
7,079.331 km
Eccentricity
0.00226
Inclination
99.0488°
RAAN
46.1979°
Arg. of periapsis
155.9361°
True anomaly
204.18324°
Mean anomaly
204.2894°
Eccentric anomaly
204.23629°
Mean motion
3.6438 °/min
Orbital period
98.8 mins
BSTAR
0.0026592
Loading maneuver chart data...
Computing Atmospheric mass density...
Loading historical data...
Loading historical data...
Loading historical data...
Loading historical data...
Loading historical data...
Loading historical data...
Loading historical data...

Documentation

Showing up to 5 results
|